FW9915 Weather Reports


time (UTC)temp
F
wind
direction
speed
knots
gust
knots
rain 1hr
in
rain 24hr
in
rain mn
in
humidity
%
barometer
mb
20220627203025 69 335 7.0 9.6 0.00 0.39 0.39 90 1014.7
20220627202025 69 317 6.1 11.3 0.00 0.39 0.39 92 1014.8
20220627201025 69 328 6.1 11.3 0.00 0.39 0.39 92 1015.0
20220627200025 69 324 5.2 7.8 0.00 0.39 0.39 93 1015.1
20220627195023 69 335 3.5 6.1 0.00 0.39 0.39 94 1015.1
20220627194022 69 320 3.5 7.8 0.05 0.39 0.39 93 1015.2
20220627193035 68 324 3.5 6.1 0.05 0.39 0.39 93 1015.2
20220627192022 69 321 0.9 2.6 0.06 0.39 0.39 93 1015.2
20220627191022 69 318 3.5 7.0 0.06 0.39 0.39 92 1015.3
20220627190022 69 330 6.1 10.4 0.06 0.39 0.39 91 1015.2
20220627185025 69 330 7.0 11.3 0.06 0.39 0.39 91 1015.2
20220627184022 69 344 5.2 7.8 0.02 0.35 0.35 90 1015.4
20220627183022 69 338 5.2 9.6 0.02 0.35 0.35 91 1015.2
20220627182035 69 327 6.1 8.7 0.00 0.33 0.33 92 1015.2
20220627181022 69 341 4.3 7.8 0.00 0.33 0.33 92 1014.9
20220627180022 69 321 4.3 7.0 0.00 0.33 0.33 93 1014.7
20220627175023 69 320 1.7 3.5 0.00 0.33 0.33 93 1014.7
20220627174023 69 327 1.7 5.2 0.02 0.33 0.33 93 1014.7
20220627173023 69 334 0.9 4.3 0.03 0.33 0.33 94 1014.7
20220627172022 69 326 0.9 3.5 0.03 0.33 0.33 95 1014.7
20220627171022 69 315 0.9 2.6 0.03 0.33 0.33 96 1014.9
20220627170023 69 338 0.0 0.9 0.03 0.33 0.33 96 1014.9
20220627165022 69 338 0.0 0.9 0.03 0.33 0.33 95 1015.2
20220627164022 69 328 0.9 3.5 0.02 0.31 0.31 95 1015.4
20220627163022 69 0.0 0.0 0.00 0.30 0.30 94 1015.3
20220627162022 69 327 1.7 3.5 0.00 0.30 0.30 93 1015.4
20220627161022 69 332 0.9 3.5 0.00 0.30 0.30 94 1015.4
20220627160022 70 317 1.7 3.5 0.00 0.30 0.30 94 1015.4
20220627155022 70 334 0.9 1.7 0.00 0.30 0.30 94 1015.5
20220627154022 70 319 0.0 0.9 0.00 0.30 0.30 93 1015.5
20220627153022 70 353 0.9 1.7 0.00 0.30 0.30 93 1015.6
20220627152023 70 19 1.7 3.5 0.00 0.30 0.30 92 1015.7
20220627151022 70 29 2.6 3.5 0.00 0.30 0.30 92 1015.7
20220627150022 70 24 2.6 3.5 0.00 0.30 0.30 92 1015.7
20220627145022 70 22 2.6 4.3 0.00 0.30 0.30 91 1015.7
20220627144022 70 20 1.7 3.5 0.00 0.30 0.30 90 1015.7
20220627143022 70 348 1.7 3.5 0.13 0.30 0.30 90 1015.7
20220627142023 70 359 3.5 5.2 0.20 0.30 0.30 90 1015.8
20220627141046 69 344 3.5 5.2 0.20 0.30 0.30 90 1015.9
20220627140024 68 332 3.5 5.2 0.20 0.30 0.30 92 1015.9
20220627135035 68 328 1.7 3.5 0.20 0.30 0.30 93 1015.8
20220627134022 69 326 0.9 3.5 0.22 0.30 0.30 93 1015.9
20220627133022 70 349 5.2 7.8 0.09 0.17 0.17 90 1016.1
20220627132022 70 0.0 0.0 0.03 0.09 0.09 85 1015.7
20220627131022 68 68 0.0 0.0 0.03 0.09 0.09 87 1015.6
20220627130023 67 92 0.9 2.6 0.03 0.09 0.09 89 1015.5
20220627125022 68 69 2.6 4.3 0.03 0.09 0.09 89 1015.6
20220627124022 71 36 7.0 11.3 0.02 0.08 0.08 88 1016.0
20220627123023 74 46 9.6 16.5 0.02 0.08 0.08 81 1015.8
20220627122022 74 66 6.1 7.8 0.00 0.06 0.06 79 1015.4
20220627121023 73 39 4.3 5.2 0.02 0.06 0.06 82 1015.3
20220627120022 72 31 4.3 5.2 0.06 0.06 0.06 83 1015.3
20220627115022 70 34 6.1 7.8 0.06 0.06 0.06 85 1015.2
20220627114022 69 33 4.3 6.1 0.06 0.06 0.06 91 1015.4
20220627113023 68 50 4.3 7.0 0.06 0.06 0.06 90 1015.5
20220627112025 69 57 7.0 9.6 0.06 0.06 0.06 91 1015.8
20220627111022 74 43 11.3 19.1 0.05 0.05 0.05 87 1015.7
20220627110022 78 32 7.8 12.2 0.00 0.00 0.00 61 1015.5
20220627105023 78 2 6.1 9.6 0.00 0.00 0.00 57 1015.2
20220627104023 79 349 7.0 13.0 0.00 0.00 0.00 56 1015.3
20220627103022 79 5 6.1 9.6 0.00 0.00 0.00 56 1015.3
20220627102022 79 358 7.8 13.0 0.00 0.00 0.00 57 1015.3
20220627101022 79 13 6.1 11.3 0.00 0.00 0.00 57 1015.4
20220627100022 80 341 7.0 13.0 0.00 0.00 0.00 57 1015.4
20220627095023 81 333 7.0 13.9 0.00 0.00 0.00 54 1015.4
20220627094022 80 352 7.0 11.3 0.00 0.00 0.00 54 1015.5
20220627093023 80 17 8.7 17.4 0.00 0.00 0.00 57 1015.5
20220627092022 80 16 7.8 13.0 0.00 0.00 0.00 56 1015.6
20220627091022 79 331 7.0 12.2 0.00 0.00 0.00 58 1015.7
20220627090022 80 357 7.8 12.2 0.00 0.00 0.00 57 1015.8
20220627085022 80 2 7.8 13.9 0.00 0.00 0.00 58 1015.8
20220627084033 79 26 6.1 17.4 0.00 0.00 0.00 59 1015.8
20220627083021 79 8 7.8 13.9 0.00 0.00 0.00 59 1015.8
20220627082021 79 358 6.1 9.6 0.00 0.00 0.00 58 1015.8
20220627081022 78 20 7.0 13.9 0.00 0.00 0.00 59 1015.8
20220627080021 78 4 7.0 13.0 0.00 0.00 0.00 60 1015.9
20220627075022 77 350 5.2 8.7 0.00 0.00 0.00 61 1015.9
20220627074023 77 16 6.1 9.6 0.00 0.00 0.00 61 1015.8
20220627073023 77 21 7.8 15.6 0.00 0.00 0.00 63 1015.9
20220627072033 77 339 7.8 13.9 0.00 0.00 0.00 64 1015.8
20220627071023 76 8 9.6 18.2 0.00 0.00 0.00 65 1015.8
20220627070023 76 5 7.0 9.6 0.00 0.00 0.00 65 1015.8
20220627065033 75 353 7.0 10.4 0.00 0.00 0.00 68 1015.7
20220627064034 75 355 6.1 13.0 0.00 0.00 0.00 69 1015.8
20220627063023 74 351 5.2 8.7 0.00 0.00 0.00 72 1015.9
20220627062021 74 333 4.3 8.7 0.00 0.00 0.00 73 1016.0
20220627061021 73 326 3.5 6.1 0.00 0.00 0.00 73 1016.1
20220627060023 73 356 5.2 8.7 0.00 0.00 0.00 75 1016.1
20220627055021 72 341 4.3 7.8 0.00 0.00 0.00 76 1016.1
20220627054023 71 334 4.3 7.8 0.00 0.00 0.00 77 1016.1
20220627053022 71 329 5.2 7.8 0.00 0.00 0.00 78 1016.0
20220627052035 71 341 5.2 7.8 0.00 0.00 0.00 77 1016.0
20220627051022 70 351 4.3 6.1 0.00 0.00 0.00 78 1015.9
20220627050021 70 350 3.5 7.8 0.00 0.00 0.00 78 1015.9
20220627045033 70 353 4.3 7.8 0.00 0.00 0.00 79 1015.8
20220627044021 69 351 4.3 8.7 0.00 0.00 0.00 81 1015.7
20220627043023 67 334 4.3 7.8 0.00 0.00 0.00 83 1015.6
20220627042021 65 327 6.1 9.6 0.00 0.00 0.00 87 1015.6
20220627041023 65 330 6.1 9.6 0.00 0.00 0.00 89 1015.6
20220627040021 64 334 6.1 11.3 0.00 0.00 0.00 90 1015.6
20220627035022 64 327 5.2 9.6 0.00 0.00 0.00 90 1015.5
20220627034033 64 333 6.1 7.8 0.00 0.00 0.00 90 1015.6
20220627033046 64 333 5.2 8.7 0.00 0.00 0.00 90 1015.6
20220627032022 64 327 6.1 8.7 0.00 0.00 0.00 90 1015.5
20220627031034 64 328 5.2 9.6 0.00 0.00 0.00 90 1015.5
20220627030022 64 319 5.2 7.8 0.00 0.00 0.00 90 1015.5
20220627025022 64 336 4.3 7.0 0.00 0.00 0.00 91 1015.5
20220627024021 64 337 5.2 7.8 0.00 0.00 0.00 90 1015.5
20220627023022 64 343 5.2 8.7 0.00 0.00 0.00 90 1015.4
20220627022022 64 331 6.1 10.4 0.00 0.00 0.00 90 1015.4
20220627021034 64 335 6.1 7.8 0.00 0.00 0.00 90 1015.4
20220627020021 63 336 6.1 8.7 0.00 0.00 0.00 90 1015.4
20220627015021 64 349 6.1 9.6 0.00 0.00 0.00 90 1015.4
20220627014022 64 349 7.0 9.6 0.00 0.00 0.00 88 1015.4
20220627013021 64 347 6.1 8.7 0.00 0.00 0.00 87 1015.4
20220627012021 64 353 6.1 7.8 0.00 0.00 0.00 86 1015.4
20220627011021 65 352 5.2 7.8 0.00 0.00 0.00 85 1015.4
20220627010022 65 346 5.2 8.7 0.00 0.00 0.00 84 1015.3
20220627005033 65 336 6.1 7.8 0.00 0.00 0.00 85 1015.3
20220627004021 65 333 6.1 10.4 0.00 0.00 0.00 85 1015.4
20220627003021 65 341 5.2 7.8 0.00 0.00 0.00 85 1015.5
20220627002024 66 339 5.2 7.8 0.00 0.00 0.00 85 1015.5
20220627001021 66 345 5.2 7.8 0.00 0.00 0.00 83 1015.6
20220627000023 66 338 6.1 8.7 0.00 0.00 0.00 83 1015.5
20220626235021 66 332 6.1 11.3 0.00 0.00 0.00 84 1015.4
20220626234022 66 339 5.2 7.8 0.00 0.00 0.00 85 1015.5
20220626233034 66 356 5.2 7.8 0.00 0.00 0.00 84 1015.5
20220626232021 66 349 5.2 7.8 0.00 0.00 0.00 84 1015.5
20220626231022 66 345 5.2 7.8 0.00 0.00 0.00 84 1015.5
20220626230045 67 340 4.3 7.8 0.00 0.00 0.00 84 1015.5
20220626225021 67 342 4.3 7.0 0.00 0.00 0.00 83 1015.5
20220626224021 67 342 3.5 6.1 0.00 0.00 0.00 82 1015.5
20220626223023 67 331 5.2 7.8 0.00 0.00 0.00 81 1015.6
20220626222022 67 334 4.3 6.1 0.00 0.00 0.00 81 1015.7
20220626221022 67 337 0.9 4.3 0.00 0.00 0.00 82 1015.7
20220626220022 67 335 1.7 3.5 0.00 0.00 0.00 83 1015.7
20220626215023 67 329 3.5 5.2 0.00 0.00 0.00 82 1015.6
20220626214022 67 323 4.3 6.1 0.00 0.00 0.00 82 1015.7
20220626213022 67 332 4.3 6.1 0.00 0.00 0.00 82 1015.7
20220626212034 67 327 2.6 5.2 0.00 0.00 0.00 83 1015.7
20220626211022 67 334 2.6 3.5 0.00 0.00 0.00 83 1015.8
20220626210021 67 333 0.9 3.5 0.00 0.00 0.00 84 1015.9
20220626205021 66 0 0.0 2.6 0.00 0.00 0.00 84 1015.8
20220626204022 67 323 0.0 0.0 0.00 0.00 0.00 84 1015.8